| time (UTC) | temp F | wind direction | speed knots | gust knots | rain 1hr in | rain 24hr in | rain mn in | humidity % | barometer mb |
| 20260507023009 | 60 | 85 | 1.7 | 3.5 | 0.00 | 0.00 | 0.00 | 85 | 1008.8 |
| 20260507021506 | 60 | 107 | 1.7 | 5.2 | 0.00 | 0.00 | 0.00 | 85 | 1008.9 |
| 20260507020002 | 60 | 155 | 1.7 | 2.6 | 0.00 | 0.00 | 0.00 | 86 | 1009.3 |
| 20260507014623 | 60 | 155 | 1.7 | 2.6 | 0.00 | 0.00 | 0.00 | 85 | 1009.3 |
| 20260507013102 | 60 | 155 | 0.0 | 1.7 | 0.00 | 0.00 | 0.00 | 86 | 1009.4 |
| 20260507011605 | 60 | 155 | 1.7 | 2.6 | 0.00 | 0.00 | 0.00 | 86 | 1009.4 |
| 20260507010037 | 60 | 103 | 0.9 | 2.6 | 0.00 | 0.00 | 0.00 | 86 | 1009.3 |
| 20260507004528 | 60 | 95 | 0.0 | 0.0 | 0.00 | 0.00 | 0.00 | 86 | 1009.3 |
| 20260507003026 | 60 | 95 | 0.0 | 0.0 | 0.00 | 0.00 | 0.00 | 86 | 1009.4 |
| 20260507001531 | 61 | 95 | 0.0 | 0.0 | 0.00 | 0.00 | 0.00 | 87 | 1009.5 |
| 20260507000029 | 61 | 95 | 0.0 | 1.7 | 0.00 | 0.00 | 0.00 | 86 | 1009.6 |
| 20260506234522 | 61 | 95 | 0.0 | 1.7 | 0.00 | 0.00 | 0.00 | 86 | 1009.8 |
| 20260506233020 | 61 | 95 | 0.0 | 1.7 | 0.00 | 0.00 | 0.00 | 86 | 1010.0 |
| 20260506231521 | 61 | 95 | 0.9 | 1.7 | 0.00 | 0.00 | 0.00 | 87 | 1010.1 |
| 20260506230019 | 61 | 93 | 0.9 | 2.6 | 0.00 | 0.00 | 0.00 | 86 | 1010.0 |
| 20260506224519 | 61 | 91 | 0.0 | 0.9 | 0.00 | 0.00 | 0.00 | 86 | 1010.1 |
| 20260506223048 | 61 | 75 | 0.0 | 0.9 | 0.00 | 0.00 | 0.00 | 86 | 1009.9 |
| 20260506221556 | 61 | 75 | 0.0 | 0.9 | 0.00 | 0.00 | 0.00 | 87 | 1009.9 |
| 20260506220047 | 61 | 75 | 1.7 | 2.6 | 0.00 | 0.00 | 0.00 | 87 | 1009.9 |
| 20260506214544 | 61 | 76 | 1.7 | 3.5 | 0.00 | 0.00 | 0.00 | 87 | 1010.1 |
| 20260506213052 | 62 | 87 | 1.7 | 3.5 | 0.00 | 0.00 | 0.00 | 86 | 1010.2 |
| 20260506211551 | 62 | 101 | 0.0 | 0.0 | 0.00 | 0.00 | 0.00 | 86 | 1010.4 |
| 20260506210046 | 62 | 101 | 0.0 | 0.9 | 0.00 | 0.00 | 0.00 | 86 | 1010.4 |
| 20260506204539 | 62 | 101 | 0.9 | 1.7 | 0.00 | 0.00 | 0.00 | 85 | 1010.2 |
| 20260506203038 | 63 | 101 | 1.7 | 3.5 | 0.00 | 0.00 | 0.00 | 85 | 1010.2 |
| 20260506201540 | 63 | 95 | 1.7 | 4.3 | 0.00 | 0.00 | 0.00 | 85 | 1009.9 |
| 20260506200037 | 63 | 86 | 1.7 | 6.1 | 0.00 | 0.00 | 0.00 | 83 | 1009.8 |
| 20260506194534 | 63 | 91 | 2.6 | 5.2 | 0.00 | 0.00 | 0.00 | 82 | 1009.7 |
| 20260506193044 | 64 | 107 | 3.5 | 7.0 | 0.00 | 0.00 | 0.00 | 81 | 1009.4 |
| 20260506191532 | 64 | 115 | 4.3 | 8.7 | 0.00 | 0.00 | 0.00 | 81 | 1009.4 |
| 20260506190032 | 65 | 103 | 2.6 | 7.8 | 0.00 | 0.00 | 0.00 | 80 | 1009.2 |
| 20260506184604 | 65 | 139 | 7.8 | 11.3 | 0.00 | 0.00 | 0.00 | 78 | 1009.0 |
| 20260506183104 | 65 | 106 | 7.0 | 12.2 | 0.00 | 0.00 | 0.00 | 77 | 1008.8 |
| 20260506181657 | 66 | 103 | 7.8 | 13.0 | 0.00 | 0.00 | 0.00 | 76 | 1008.8 |
| 20260506180055 | 66 | 114 | 7.8 | 13.9 | 0.00 | 0.00 | 0.00 | 76 | 1008.8 |
| 20260506174554 | 66 | 92 | 5.2 | 12.2 | 0.00 | 0.00 | 0.00 | 75 | 1008.7 |
| 20260506173120 | 66 | 112 | 7.0 | 13.9 | 0.00 | 0.00 | 0.00 | 74 | 1008.6 |
| 20260506171554 | 67 | 125 | 6.1 | 12.2 | 0.00 | 0.00 | 0.00 | 74 | 1008.5 |
| 20260506170104 | 67 | 109 | 10.4 | 16.5 | 0.00 | 0.00 | 0.00 | 72 | 1008.7 |
| 20260506164549 | 67 | 126 | 7.8 | 15.6 | 0.00 | 0.00 | 0.00 | 72 | 1008.4 |
| 20260506163055 | 67 | 86 | 9.6 | 15.6 | 0.00 | 0.00 | 0.00 | 72 | 1008.3 |
| 20260506161547 | 67 | 128 | 9.6 | 14.8 | 0.00 | 0.00 | 0.00 | 70 | 1008.3 |
| 20260506160046 | 68 | 113 | 10.4 | 15.6 | 0.00 | 0.00 | 0.00 | 69 | 1008.5 |
| 20260506154603 | 68 | 107 | 10.4 | 16.5 | 0.00 | 0.00 | 0.00 | 70 | 1008.6 |
| 20260506153042 | 68 | 111 | 10.4 | 15.6 | 0.00 | 0.00 | 0.00 | 70 | 1008.4 |
| 20260506151538 | 68 | 114 | 8.7 | 16.5 | 0.00 | 0.00 | 0.00 | 70 | 1008.5 |
| 20260506150037 | 68 | 141 | 8.7 | 16.5 | 0.00 | 0.00 | 0.00 | 71 | 1008.6 |
| 20260506144542 | 68 | 130 | 11.3 | 17.4 | 0.00 | 0.00 | 0.00 | 72 | 1008.7 |
| 20260506143035 | 68 | 111 | 9.6 | 18.2 | 0.00 | 0.00 | 0.00 | 72 | 1008.9 |
| 20260506141531 | 69 | 131 | 12.2 | 17.4 | 0.00 | 0.00 | 0.00 | 71 | 1009.0 |
| 20260506140034 | 69 | 144 | 9.6 | 18.2 | 0.00 | 0.00 | 0.00 | 71 | 1009.1 |
| 20260506134529 | 70 | 91 | 8.7 | 18.2 | 0.00 | 0.00 | 0.00 | 71 | 1008.9 |
| 20260506133035 | 69 | 115 | 13.0 | 20.9 | 0.00 | 0.00 | 0.00 | 70 | 1009.0 |
| 20260506131557 | 70 | 95 | 11.3 | 16.5 | 0.00 | 0.00 | 0.00 | 70 | 1008.9 |
| 20260506130120 | 70 | 111 | 7.0 | 18.2 | 0.00 | 0.00 | 0.00 | 71 | 1008.9 |
| 20260506124552 | 71 | 123 | 9.6 | 15.6 | 0.00 | 0.00 | 0.00 | 67 | 1009.1 |
| 20260506123051 | 70 | 126 | 12.2 | 19.1 | 0.00 | 0.00 | 0.00 | 68 | 1009.0 |
| 20260506121550 | 72 | 144 | 9.6 | 14.8 | 0.00 | 0.00 | 0.00 | 66 | 1009.0 |
| 20260506120048 | 70 | 74 | 8.7 | 17.4 | 0.00 | 0.00 | 0.00 | 67 | 1009.2 |
| 20260506114548 | 71 | 96 | 11.3 | 17.4 | 0.00 | 0.00 | 0.00 | 66 | 1009.3 |
| 20260506113043 | 71 | 114 | 9.6 | 17.4 | 0.00 | 0.00 | 0.00 | 65 | 1009.6 |
| 20260506111642 | 71 | 98 | 11.3 | 17.4 | 0.00 | 0.00 | 0.00 | 66 | 1009.6 |
| 20260506110044 | 70 | 86 | 9.6 | 17.4 | 0.00 | 0.00 | 0.00 | 66 | 1009.5 |
| 20260506104557 | 71 | 117 | 7.8 | 15.6 | 0.00 | 0.00 | 0.00 | 66 | 1009.7 |
| 20260506103039 | 70 | 137 | 7.8 | 13.9 | 0.00 | 0.00 | 0.00 | 66 | 1009.8 |
| 20260506101532 | 71 | 141 | 10.4 | 15.6 | 0.00 | 0.00 | 0.00 | 63 | 1009.9 |
| 20260506100033 | 71 | 109 | 8.7 | 13.0 | 0.00 | 0.00 | 0.00 | 65 | 1010.0 |
| 20260506094526 | 69 | 111 | 7.8 | 13.9 | 0.00 | 0.00 | 0.00 | 65 | 1010.0 |
| 20260506093018 | 69 | 90 | 9.6 | 16.5 | 0.00 | 0.00 | 0.00 | 65 | 1009.9 |
| 20260506091514 | 69 | 65 | 4.3 | 11.3 | 0.00 | 0.00 | 0.00 | 68 | 1009.7 |
| 20260506090012 | 68 | 34 | 5.2 | 13.0 | 0.00 | 0.00 | 0.00 | 69 | 1009.6 |
| 20260506084507 | 68 | 44 | 5.2 | 8.7 | 0.00 | 0.00 | 0.00 | 72 | 1009.6 |
| 20260506083002 | 66 | 82 | 6.1 | 9.6 | 0.00 | 0.00 | 0.00 | 75 | 1009.5 |
| 20260506081500 | 66 | 111 | 4.3 | 7.0 | 0.00 | 0.00 | 0.00 | 74 | 1009.5 |
| 20260506080106 | 66 | 121 | 1.7 | 4.3 | 0.00 | 0.00 | 0.00 | 75 | 1009.4 |
| 20260506073019 | 64 | 327 | 1.7 | 5.2 | 0.00 | 0.00 | 0.00 | 75 | 1009.4 |
| 20260506071514 | 63 | 338 | 2.6 | 4.3 | 0.00 | 0.00 | 0.00 | 73 | 1009.4 |
| 20260506061556 | 56 | 171 | 2.6 | 3.5 | 0.00 | 0.00 | 0.00 | 80 | 1009.4 |
| 20260506044540 | 55 | 221 | 1.7 | 3.5 | 0.00 | 0.00 | 0.00 | 80 | 1008.3 |
| 20260506043047 | 55 | 57 | 1.7 | 2.6 | 0.00 | 0.00 | 0.00 | 80 | 1008.4 |
| 20260506041537 | 55 | 81 | 4.3 | 6.1 | 0.00 | 0.00 | 0.00 | 79 | 1008.3 |
| 20260506040042 | 57 | 117 | 1.7 | 3.5 | 0.00 | 0.00 | 0.00 | 74 | 1008.2 |
| 20260506034526 | 60 | 117 | 0.9 | 2.6 | 0.00 | 0.00 | 0.00 | 70 | 1008.2 |
| 20260506033028 | 61 | 294 | 0.0 | 4.3 | 0.00 | 0.00 | 0.00 | 67 | 1008.2 |
| 20260506031557 | 61 | 284 | 4.3 | 8.7 | 0.00 | 0.00 | 0.00 | 68 | 1008.1 |
| 20260506030052 | 61 | 305 | 4.3 | 7.0 | 0.00 | 0.00 | 0.00 | 71 | 1008.1 |
| 20260506024546 | 60 | 271 | 4.3 | 7.0 | 0.00 | 0.00 | 0.00 | 75 | 1008.0 |